Litchfield, IL

7:59 AM CDT on August 23, 2017 (GMT -0500)
Litchfield

Weather History for K3LF - October, 2013

Change the Weather History Date:

Thursday, October 31, 2013

  Actual Average (KALN) Record (KALN)
Temperature  
Mean Temperature 56 °F -  
Max Temperature 65 °F 60 °F 84 °F (1999)
Min Temperature 47 °F 43 °F 33 °F (1996)
Degree Days  
Heating Degree Days 8    
Growing Degree Days 6 (Base 50)    
Moisture  
Dew Point 58 °F    
Average Humidity 95    
Maximum Humidity 99    
Minimum Humidity 87    
Precipitation  
Precipitation 0.31 in - - ()
Sea Level Pressure  
Sea Level Pressure 29.58 in    
Wind  
Wind Speed 14 mph (SW)    
Max Wind Speed 23 mph    
Max Gust Speed 30 mph    
Visibility 8 miles    
Events Rain , Thunderstorm    
Averages and records for this station are not official NWS values.
T = Trace of Precipitation, MM = Missing Value Source: NWS Daily Summary

Daily Weather History Graph

Daily Weather History Graph

Search for Another Location

Airport or City:

Trip Planner

Search our weather history database for the weather conditions in past years. The results will help you decide how hot, cold, wet, or windy it might be!

Date:

Astronomy

Oct. 31, 2013 Rise Set
Actual Time 7:25 AM CDT 5:58 PM CDT
Civil Twilight 6:57 AM CDT 6:26 PM CDT
Nautical Twilight 6:26 AM CDT 6:57 PM CDT
Astronomical Twilight 5:55 AM CDT 7:28 PM CDT
Moon 4:16 AM CDT (10/31) 4:15 PM CDT (10/31)
Length of Visible Light 11h 28m
Length of Day
10h 33m
Waning Crescent, 10% of the Moon is Illuminated
Oct 31
Waning Crescent
Nov 3
New
Nov 9
First Quarter
Nov 17
Full
Nov 25
Last Quarter

Hourly Weather History & Observations

Time (CDT) Temp. Dew Point Humidity Pressure Visibility Wind Dir Wind Speed Gust Speed Precip Events Conditions
12:15 AM 63.7 °F 62.4 °F 96% 29.85 in 7.0 mi South 19.6 mph 29.9 mph N/A Rain Rain
12:35 AM 63.5 °F 62.1 °F 95% 29.83 in 7.0 mi South 16.1 mph - N/A Rain Rain
12:55 AM 63.0 °F 61.3 °F 94% 29.83 in 7.0 mi South 19.6 mph 27.6 mph N/A   Light Drizzle
1:15 AM 63.0 °F 61.9 °F 96% 29.81 in 5.0 mi South 12.7 mph 18.4 mph N/A   Overcast
1:35 AM 63.3 °F 62.4 °F 97% 29.80 in 7.0 mi South 13.8 mph 21.9 mph N/A   Drizzle
1:55 AM 63.3 °F 62.2 °F 96% 29.79 in 7.0 mi South 11.5 mph - 0.01 in   Drizzle
2:15 AM 63.0 °F 61.7 °F 96% 29.79 in 7.0 mi South 15.0 mph 23.0 mph N/A Rain Light Rain
2:35 AM 62.4 °F 60.8 °F 94% 29.78 in 10.0 mi South 18.4 mph 21.9 mph N/A   Light Drizzle
2:55 AM 61.7 °F 60.3 °F 95% 29.77 in 10.0 mi South 16.1 mph 23.0 mph 0.01 in Rain Rain
3:15 AM 61.3 °F 59.9 °F 95% 29.76 in 10.0 mi South 12.7 mph - N/A Rain Light Rain
3:35 AM 61.3 °F 60.1 °F 96% 29.75 in 5.0 mi South 12.7 mph 20.7 mph N/A Rain Light Rain
3:55 AM 61.2 °F 60.4 °F 97% 29.73 in 10.0 mi South 10.4 mph - N/A   Overcast
4:15 AM 61.7 °F 60.8 °F 97% 29.73 in 10.0 mi South 13.8 mph 18.4 mph 0.01 in Rain Light Rain
4:35 AM 61.5 °F 60.8 °F 97% 29.73 in 5.0 mi SSW 13.8 mph - 0.01 in Rain Rain
4:55 AM 61.3 °F 60.8 °F 98% 29.73 in 5.0 mi SSW 10.4 mph 16.1 mph 0.01 in Rain Rain
5:15 AM 61.3 °F 60.8 °F 98% 29.72 in 5.0 mi SSW 10.4 mph - N/A Rain Rain
5:35 AM 61.7 °F 61.0 °F 97% 29.72 in 7.0 mi SSW 9.2 mph - N/A Rain Rain
5:55 AM 61.7 °F 61.0 °F 97% 29.71 in 7.0 mi South 10.4 mph - N/A Rain Rain
6:15 AM 61.7 °F 61.2 °F 98% 29.70 in 7.0 mi South 11.5 mph - 0.01 in Rain Rain
6:35 AM 61.7 °F 61.2 °F 98% 29.69 in 7.0 mi South 10.4 mph - 0.01 in Rain Light Rain
6:55 AM 61.7 °F 61.0 °F 97% 29.68 in 7.0 mi South 10.4 mph - 0.01 in Rain Light Rain
7:15 AM 61.2 °F 60.8 °F 99% 29.67 in 5.0 mi South 10.4 mph - N/A Rain Rain
7:35 AM 61.2 °F 60.8 °F 99% 29.65 in 7.0 mi South 10.4 mph - 0.01 in Rain Rain
7:55 AM 61.2 °F 60.8 °F 99% 29.65 in 5.0 mi South 8.1 mph - 0.01 in Rain Light Rain
8:15 AM 61.0 °F 60.8 °F 99% 29.64 in 4.0 mi South 8.1 mph - N/A Rain Rain
8:35 AM 61.3 °F 61.0 °F 99% 29.63 in 3.0 mi South 8.1 mph - 0.01 in Rain Heavy Rain
8:55 AM 61.7 °F 61.0 °F 97% 29.63 in 5.0 mi South 15.0 mph 20.7 mph 0.01 in Rain Rain
9:15 AM 61.7 °F 61.0 °F 97% 29.61 in 7.0 mi South 15.0 mph 20.7 mph 0.01 in Rain Light Rain
9:35 AM 61.3 °F 60.8 °F 98% 29.59 in 5.0 mi South 16.1 mph 21.9 mph 0.02 in Rain Rain
9:55 AM 61.2 °F 60.4 °F 97% 29.58 in 5.0 mi South 16.1 mph 21.9 mph 0.03 in Rain Light Rain
10:15 AM 61.0 °F 60.3 °F 97% 29.56 in 10.0 mi SSE 15.0 mph - 0.01 in Rain Rain
10:35 AM 60.8 °F 60.1 °F 97% 29.54 in 7.0 mi South 12.7 mph - 0.02 in Rain Light Rain
10:55 AM 60.8 °F 60.3 °F 98% 29.54 in 7.0 mi South 13.8 mph 20.7 mph 0.03 in Rain Light Rain
11:15 AM 61.2 °F 60.8 °F 99% 29.52 in 7.0 mi South 16.1 mph 23.0 mph 0.01 in   Light Drizzle
11:35 AM 61.7 °F 60.8 °F 97% 29.50 in 10.0 mi South 17.3 mph 25.3 mph 0.02 in   Overcast
11:55 AM 61.9 °F 61.2 °F 97% 29.50 in 10.0 mi South 18.4 mph 25.3 mph 0.03 in   Overcast
12:15 PM 61.7 °F 60.8 °F 97% 29.49 in 10.0 mi South 18.4 mph 24.2 mph 0.01 in   Overcast
12:35 PM 61.9 °F 61.2 °F 97% 29.48 in 7.0 mi South 17.3 mph 21.9 mph 0.02 in Rain Light Rain
12:55 PM 62.2 °F 61.7 °F 98% 29.46 in 7.0 mi South 15.0 mph 19.6 mph 0.03 in Rain Light Rain
1:15 PM 63.1 °F 62.2 °F 97% 29.43 in 10.0 mi South 15.0 mph - 0.01 in   Light Drizzle
1:35 PM 63.9 °F 62.6 °F 96% 29.43 in 10.0 mi SSW 17.3 mph 23.0 mph 0.01 in   Overcast
1:55 PM 64.0 °F 62.6 °F 95% 29.41 in 10.0 mi SSW 16.1 mph 25.3 mph 0.02 in   Overcast
2:15 PM 65.3 °F 63.0 °F 92% 29.40 in 10.0 mi SSW 17.3 mph 24.2 mph 0.01 in   Overcast
2:35 PM 64.8 °F 62.2 °F 92% 29.40 in 10.0 mi SSW 17.3 mph 23.0 mph 0.02 in   Mostly Cloudy
2:55 PM 64.6 °F 61.9 °F 91% 29.40 in 10.0 mi SW 16.1 mph - 0.03 in   Overcast
3:15 PM 64.4 °F 60.8 °F 88% 29.40 in 10.0 mi WSW 17.3 mph - N/A   Overcast
3:35 PM 63.5 °F 59.5 °F 87% 29.40 in 10.0 mi WSW 16.1 mph 23.0 mph 0.01 in   Overcast
3:55 PM 62.8 °F 59.7 °F 90% 29.37 in 10.0 mi WSW 10.4 mph - 0.01 in   Mostly Cloudy
4:15 PM 62.8 °F 59.4 °F 89% 29.38 in 10.0 mi SW 9.2 mph - N/A   Overcast
4:35 PM 62.1 °F 59.4 °F 91% 29.40 in 10.0 mi WSW 13.8 mph 19.6 mph N/A   Overcast
4:55 PM 61.0 °F 59.2 °F 94% 29.40 in 7.0 mi WSW 16.1 mph - 0.01 in Rain Light Rain
5:15 PM 59.7 °F 58.3 °F 95% 29.40 in 7.0 mi WNW 10.4 mph - N/A Rain , Thunderstorm Rain
5:35 PM 58.5 °F 57.6 °F 97% 29.43 in 7.0 mi West 12.7 mph - 0.01 in Rain Rain
5:55 PM 58.1 °F 57.2 °F 97% 29.43 in 5.0 mi West 9.2 mph - 0.01 in Rain Heavy Rain
6:15 PM 57.7 °F 57.2 °F 98% 29.42 in 10.0 mi NW 8.1 mph - N/A Rain Light Rain
6:35 PM 57.4 °F 56.5 °F 97% 29.42 in 10.0 mi NW 16.1 mph 19.6 mph 0.01 in   Drizzle
6:55 PM 54.3 °F 52.7 °F 94% 29.45 in 10.0 mi NW 23.0 mph 29.9 mph 0.01 in   Light Drizzle
7:15 PM 53.1 °F 51.4 °F 94% 29.46 in 10.0 mi WNW 17.3 mph 25.3 mph 0.01 in Rain Light Rain
7:35 PM 52.3 °F 50.2 °F 92% 29.49 in 10.0 mi WNW 16.1 mph 24.2 mph 0.01 in   Overcast
7:55 PM 51.8 °F 49.3 °F 91% 29.51 in 10.0 mi WNW 16.1 mph 24.2 mph 0.01 in   Overcast
8:15 PM 51.1 °F 48.9 °F 92% 29.50 in 10.0 mi WNW 13.8 mph 20.7 mph N/A   Drizzle
8:35 PM 50.4 °F 48.2 °F 92% 29.50 in 10.0 mi WNW 8.1 mph - N/A   Overcast
8:55 PM 50.2 °F 48.4 °F 94% 29.52 in 10.0 mi West 6.9 mph - 0.01 in   Overcast
9:15 PM 50.0 °F 48.4 °F 94% 29.54 in 10.0 mi West 9.2 mph - N/A   Overcast
9:35 PM 49.3 °F 47.3 °F 93% 29.55 in 10.0 mi West 13.8 mph 17.3 mph N/A   Mostly Cloudy
9:55 PM 48.6 °F 46.8 °F 93% 29.58 in 10.0 mi West 16.1 mph 23.0 mph N/A   Scattered Clouds
10:15 PM 48.6 °F 46.4 °F 92% 29.58 in 10.0 mi West 11.5 mph - 0.01 in   Scattered Clouds
10:35 PM 48.6 °F 47.1 °F 95% 29.60 in 10.0 mi West 10.4 mph - 0.01 in   Mostly Cloudy
10:55 PM 48.6 °F 45.9 °F 90% 29.61 in 10.0 mi West 13.8 mph - 0.01 in   Mostly Cloudy
11:15 PM 48.2 °F 45.5 °F 90% 29.62 in 10.0 mi West 12.7 mph - N/A   Mostly Cloudy
11:35 PM 48.2 °F 45.3 °F 90% 29.62 in 10.0 mi West 18.4 mph 21.9 mph N/A   Mostly Cloudy
11:55 PM 47.3 °F 44.6 °F 90% 29.62 in 10.0 mi West 15.0 mph - 0.01 in   Scattered Clouds